Location: Asheville, NC
(35.6000°N, 82.5500°W)
Time: 20:08:03
(UTC-04:00)

Vanguard 2 Rocket - Pass Details

Date: 10 December 2017
Orbit: 553 x 3328 km, 32.9° (Epoch: 24 April)

Event Time Altitude Azimuth Distance (km) Brightness Sun altitude
Exits shadow 04:35:50 26° 220° (SW) 4,186 9.9 -34.4°
Drops below altitude 10° 04:44:43 10° 177° (S) 4,557 10.5 -32.6°
Sets 04:48:33 0° 165° (SSE) 5,145 11.0 -31.8°
